Home > Time Zones > World Clock > Weather > U.S.A. > Erie > Past weeks

Flag for U.S.A. Weather past 2 weeks in Erie, Pennsylvania, U.S.A.

Now
31 °F

Overcast.


Feels Like: 22 °F
Forecast: 3 / 21 °F
Wind: 10 mph from West

Location: Erie International Airport

Current Time: Mar 4, 2015 at 9:34:34 PM

Latest Report: Mar 4, 2015 at 8:51 PM


Visibility: 9 mi

Pressure: 30.04 "Hg

Humidity: 76%

Dew point: 24 °F

Location of ErieLocation

Historic Weather in Erie — Graph

°F

Erie temperature yesterday

Maximum temperature yesterday: 40 °F (at 8:04 PM)
Minimum temperature yesterday: 13 °F (at 12:51 AM)
Average temperature yesterday: 27 °F

Past Weeks' High & Low Weather Summary

 TemperatureHumidityPressure
High40 °F (Mar 3, 8:04 PM)92% (Feb 21, 10:51 PM)30.84 "Hg (Feb 21, 10:51 PM)
Low-15 °F (Feb 20, 2:51 AM)31% (Feb 24, 3:51 PM)29.62 "Hg (Mar 3, 4:51 PM)
Average13 °F70%30.22 "Hg
* Reported Feb 17 7:51 PM — Mar 4 7:51 PM, Erie, Weather by CustomWeather, © 2015

Note: Actual official high and low records may vary slightly from our data, if they occured in-between our weather recording intervals... More about our weather records

Advertising

Erie weather history for previous 24 hours

 ConditionsComfort  
Time TempWeatherWind HumidityBarometerVisibility
7:51 PM
Wed, Mar 4
32 °FClear.10 mph66%30.00 "Hg9 mi
6:51 PM32 °FPassing clouds.9 mph69%29.99 "Hg9 mi
5:51 PM32 °FOvercast.7 mph73%29.98 "Hg7 mi
4:51 PM32 °FOvercast.8 mph75%29.95 "Hg8 mi
3:51 PM32 °FOvercast.12 mph69%29.95 "Hg8 mi
2:51 PM32 °FOvercast.12 mph66%29.95 "Hg9 mi
1:51 PM33 °FOvercast.9 mph63%29.94 "Hg10 mi
12:51 PM33 °FOvercast.9 mph61%29.95 "Hg10 mi
11:51 AM33 °FOvercast.12 mph58%29.95 "Hg10 mi
10:51 AM33 °FOvercast.9 mph63%29.96 "Hg10 mi
9:51 AM32 °FOvercast.8 mph69%29.96 "Hg10 mi
8:51 AM32 °FOvercast.6 mph69%29.94 "Hg10 mi
7:51 AM31 °FOvercast.6 mph76%29.92 "Hg10 mi
6:51 AM33 °FMore clouds than sun.6 mph82%29.86 "Hg10 mi
5:51 AM34 °FOvercast.9 mph79%29.86 "Hg10 mi
4:51 AM34 °FOvercast.9 mph82%29.83 "Hg10 mi
3:51 AM34 °FMostly cloudy.10 mph85%29.82 "Hg9 mi
2:51 AM34 °FMostly cloudy.14 mph88%29.80 "Hg8 mi
1:51 AM35 °FOvercast.14 mph85%29.80 "Hg10 mi
12:51 AM36 °FMostly cloudy.15 mph82%29.78 "Hg10 mi
11:59 PM
Tue, Mar 3
37 °FMostly cloudy.15 mph82%29.73 "Hg10 mi
10:51 PM38 °FLow clouds.21 mph83%29.74 "Hg10 mi
9:51 PM38 °FMostly cloudy.17 mph86%29.72 "Hg10 mi
Weather by CustomWeather, © 2015

See weather overviewHow to use our weather pages